7 * 24
多渠道服务支持
HULIANWANG DIGUI-103是中国于2025年11月10日发射的低轨卫星,归属“互联网星座”体系,是中国低轨互联网星座建设中的一颗组网卫星,主要服务于全球互联网接入服务,能够弥补地面网络覆盖不足,为偏远地区、海洋空域等提供稳定宽带通信支持,进一步推进了中国自主可控的全球卫星互联网系统构建进程。
中国
(CN)
| 数据来源 | 国际轨道数据 | AOE轨道数据 |
| 星历时间 | 2026-05-24T07:20:28+0800 1天前 查看轨道信息 | 2026-05-22T17:00:00+0800 2天前 查看轨道信息 |
| 半长轴 | 7527.457km | 7527.454km |
| 偏心率 | 0.0000914 | 0.0001077 |
| 轨道倾角 | 50.002° | 50.002° |
| 近地点辐角 | 59.732° | 46.452° |
| 升交点赤经 | 22.192° | 27.923° |
| 平近点角 | 300.364° | 223.774° |
| 近地点 | 1148.631km | 1148.506km |
| 远地点 | 1150.009km | 1150.128km |
| 周期 | 108.326分钟 | 108.326分钟 |
| 每日圈数 | 13.293225 | 13.293235 |